SCP
0 0 0 0 0 0 0 0 0 0 0 0 0 0 0 0 0 0 0 0 0 0 0 0 0 0 0 0 0 0 0 0 0 0 0 0 0 0 0 0 0 0 0 0 0 0 0
0 0 0 0 0 0 0 0 0 0 0 0 0 0 0 0 0 0 0 0 0 0 0 0 0 0 0 0 0 0 0 0 0 0 0 0 0 0 0 0 0 0 0 0 0 0 0
0 0 0 0 0 0 0 0 0 0 0 0 0 0 0 0 0 0 0 0 0 0 0 0 0 0 0 0 0 0 0 0 0 0 0 0 0 0 0 0 0 0 0 0 0 0 0
0 0 0 0 0 0 0 0 0 0 0 0 0 0 0 0 0 0 0 0 0 0 0 0 0 0 0 0 0 0 0 0 0 -0 -0 -0 0 0 0 0 0 0 0 0 0 0 0
0 0 0 0 0 0 0 0 0 0 0 0 0 0 0 0 0 0 0 0 -0 0 0 -0 0 0 0 0 0 0 0 0 0 0 0 0 0 0 0 0 0 0 0 0 0 0 0
0 0 0 0 0 0 0 0 0 0 0 0 0 0 0 0 0 0 0 0 -0 0 0 -0 0 0 0 0 0 0 0 0 0 0 0 0 0 0 0 0 0 0 0 0 0 0 0
0 0 0 0 0 0 0 0 0 0 0 0 0 0 0 0 0 0 0 0 0 0 0 0 -0 -0 -0 0 0 0 0 0 0 0 0 0 0 0 -0 -0 -0 0 0 0 0 0 0
0 0 0 0 0 0 0 0 0 0 0 0 0 0 0 0 0 0 0 0 0 0 0 0 0 0 0 0 0 0 -0 0 0 0 0 0 0 0 -0 0 0 0 0 0 0 0 0
0 0 0 0 0 0 0 0 0 0 0 0 0 0 0 0 -0 0 0 0 0 0 0 0 0 0 0 0 0 -0 0 0 0 0 0 0 -0 0 -0 0 0 0 0 0 0 0 0
0 0 0 0 0 0 0 0 0 0 0 0 0 0 0 0 -0 0 0 0 0 0 0 0 0 0 0 0 0 -0 0 -0 0 0 0 0 -0 -0 0 0 0 0 0 0 0 0 0
0 0 0 0 0 0 0 0 0 0 0 0 0 0 0 0 0 0 0 0 0 0 0 0 0 0 -0 0 -0 0 0 -0 0 0 0 0 -0 -0 -0 -0 0 0 0 0 0 0 0
0 0 0 0 0 0 0 0 0 0 0 0 0 0 0 0 0 0 0 0 0 0 0 0 0 -0 0 0 0 0 0 -0 0 0 0 -0 -0 0 -0 -0 0 -0 0 0 -0 -0 0
0 0 0 0 0 0 0 0 0 0 0 0 0 0 0 0 0 0 0 0 0 0 0 0 0 0 0 -0 0 0 0 0 0 0 -0 0 -0 0 0 0 0 -0 0 0 -0 0 0
0 0 0 0 0 0 0 0 0 0 0 0 0 0 0 0 0 0 0 0 0 0 0 0 0 0 0 -0 0 0 0 0 -0 0 -0 -0 -0 0 0 0 0 -0 0 0 0 -0 0
0 0 0 0 0 0 0 0 0 0 0 0 0 0 0 0 0 0 0 0 0 0 0 0 -0 0 0 0 0 0 0 0 0 0 -0 -0 -0 -0 -0 0 0 0 0 -0 0 0 0
0 0 0 0 0 0 0 0 0 0 0 0 0 0 0 0 0 0 0 0 0 0 0 0 0 0 0 -0 0 0 0 0 -0 0 0 -0 -0 0 0 0 0 0 0 0 0 0 0
0 0 0 0 0 0 0 0 0 0 0 0 0 0 0 0 0 0 0 0 0 0 0 0 0 0 0 0 0 0 0 0 0 -0 -0 -0 -0 0 0 -0 0 0 -0 0 0 0 -0
0 0 0 0 0 0 0 0 0 0 0 0 0 0 0 0 0 0 0 0 0 0 0 0 0 0 0 0 0 0 0 0 0 -0 0 -0 -0 0 -0 -0 0 -0 0 0 -0 0 0
0 0 0 0 0 0 0 0 0 0 0 0 0 0 0 0 0 0 0 0 0 0 0 0 0 0 0 0 0 0 0 0 0 0 -0 -0 -0 0 0 0 -0 0 -0 -0 0 0 -0
0 0 0 0 0 0 0 0 0 0 0 0 0 0 0 0 0 0 0 0 0 0 0 0 0 0 0 0 0 0 0 0 0 0 -0 -0 -0 -0 0 0 0 0 -0 -0 -0 0 -0
0 0 0 0 0 0 0 0 0 0 0 0 0 0 0 0 0 0 0 0 0 0 0 0 0 0 0 0 -0 0 0 -0 0 0 -0 -0 0 0 0 0 0 -0 -0 -0 -0 -0 -0
0 0 0 0 0 0 0 0 0 0 0 0 0 0 0 0 0 0 0 0 0 0 0 0 0 0 0 0 0 -0 -0 0 0 0 -0 -0 0 -0 0 -0 0 -0 -0 -0 -0 -0 -0
0 0 0 0 0 0 0 0 0 0 0 0 0 0 0 0 0 0 0 0 0 0 0 0 0 0 -0 -0 -0 -0 -0 -0 0 0 -0 0 -0 -0 -0 0 -0 -0 -0 -0 0 0 0
0 0 0 0 0 0 0 0 0 0 0 0 0 0 0 0 0 0 0 0 0 0 0 -0 0 0 0 -0 -0 0 0 0 0 0 0 -0 -0 -0 -0 -0 -0 -0 -0 0 0 -0 -0
0 0 0 0 0 0 0 0 0 0 0 0 0 0 0 0 0 0 0 0 0 0 0 -0 0 0 -0 0 0 0 0 0 0 0 0 -0 -0 0 0 -0 -0 -0 -0 -0 0 0 -0
0 0 0 0 0 0 0 0 0 0 0 0 0 0 0 0 0 0 0 0 0 0 0 0 0 0 0 0 0 0 0 0 0 0 0 -0 -0 -0 0 0 0 -0 -0 0 -0 0 -0
0 0 0 0 0 0 0 0 0 0 0 0 0 0 0 0 0 0 0 0 0 0 0 0 -0 -0 0 0 0 0 0 0 0 0 0 -0 -0 -0 0 0 0 0 0 -0 -0 0 -0
0 0 0 0 0 0 0 0 0 0 -0 0 0 0 0 0 0 0 0 0 0 0 0 0 0 0 0 0 0 0 0 0 0 0 0 -0 -0 -0 -0 -0 0 0 -0 0 0 0 0
0 0 0 0 0 0 0 0 0 0 0 -0 0 0 0 0 0 0 0 0 0 0 0 0 0 0 0 0 0 0 0 0 0 0 0 0 0 0 0 0 0 0 0 0 0 0 0
Wind_Speed_500mb
35 35 35 39 36 41 40 43 39 45 53 54 56 56 56 58 58 55 57 61 62 61 60 64 63 66 50 33 47 42 48 38 44 41 41 39 46 45 52 49 65 56 62 86 89 85 75
41 42 43 42 44 43 46 34 37 45 46 46 47 50 58 58 61 59 60 62 63 64 66 64 57 43 42 46 17 24 34 47 39 35 37 38 39 40 47 51 52 68 69 68 78 78 73
40 38 40 41 46 50 51 53 47 52 58 50 51 52 53 57 60 62 64 65 68 71 68 58 45 40 49 53 41 40 27 23 22 26 30 28 30 34 37 46 66 67 61 61 58 55 61
38 39 39 40 42 46 48 51 47 56 48 50 54 57 52 56 58 63 66 69 73 60 56 27 54 39 26 25 27 27 24 50 39 32 43 51 50 52 42 44 62 54 47 38 60 61 63
38 40 43 46 43 46 45 51 54 58 50 50 54 59 57 57 61 65 68 73 62 47 37 47 25 15 21 23 26 35 34 33 33 54 49 46 40 50 49 37 36 40 47 63 60 53 63
38 39 40 38 44 50 46 51 55 58 53 58 53 59 61 58 61 64 68 72 48 31 16 22 1 28 12 45 48 44 39 27 40 52 49 37 43 36 37 34 34 46 47 56 63 58 63
42 38 41 41 39 44 47 50 53 54 53 55 54 56 58 61 61 60 62 53 56 11 61 19 52 39 53 40 48 36 43 46 53 46 32 40 25 34 46 49 55 54 54 65 57 56 55
35 39 39 45 40 44 48 53 57 52 54 59 59 59 60 58 58 46 45 27 22 29 29 49 16 20 30 26 56 71 47 36 42 45 41 38 41 51 48 46 46 43 45 52 53 62 54
41 41 41 43 45 43 47 54 56 49 56 61 64 58 54 56 51 30 35 18 34 34 17 29 19 25 34 37 80 60 60 41 34 43 39 40 56 48 50 45 48 48 49 51 53 54 56
42 43 43 44 44 40 47 52 58 53 56 61 64 55 53 61 26 38 24 31 36 25 8 14 19 4 36 70 24 66 28 30 24 28 30 30 39 34 42 51 48 49 50 49 51 45 31
43 43 47 52 39 44 47 50 57 50 54 65 65 51 57 51 34 26 36 47 44 2 12 30 17 24 66 39 56 35 30 41 38 49 25 32 40 40 42 48 43 44 42 40 44 40 41
42 49 45 52 45 41 48 50 54 46 58 58 64 48 60 36 28 35 44 49 11 7 8 26 28 51 49 49 44 25 52 38 36 27 31 44 44 32 30 37 34 34 38 34 34 31 32
43 51 47 42 48 44 46 48 53 47 55 60 57 51 54 30 30 44 46 24 8 5 27 18 52 55 49 38 30 24 41 30 19 16 36 34 22 9 14 20 22 34 22 16 17 20 27
47 50 47 47 48 52 46 48 52 46 56 59 60 51 42 22 34 41 32 6 6 7 26 34 35 48 19 37 29 35 38 29 20 23 30 26 37 27 19 40 25 43 15 14 18 23 30
48 48 53 52 48 51 46 45 48 49 49 58 57 50 17 19 33 32 15 5 6 18 21 28 39 18 22 28 23 27 38 25 13 20 19 26 30 55 28 8 10 5 12 32 24 35 25
48 47 52 49 48 48 44 45 43 47 49 55 53 38 11 17 36 18 5 7 6 18 26 19 14 10 25 29 26 33 23 15 31 20 28 16 36 19 21 30 1 22 21 10 10 8 25
47 48 49 48 46 46 45 43 43 45 46 49 39 20 11 22 21 4 5 8 16 22 27 7 13 16 21 34 27 32 16 34 12 40 36 24 11 28 34 23 34 13 19 11 13 8 14
45 46 49 48 47 44 42 44 40 42 41 40 23 9 17 19 6 1 9 17 20 20 16 20 16 21 26 30 27 22 22 32 49 45 38 13 13 23 42 35 2 12 26 24 13 6 12
50 48 48 48 50 44 43 44 43 40 35 33 16 17 17 7 6 8 15 16 24 14 12 5 12 15 15 18 20 23 29 27 58 18 16 14 8 23 22 3 8 22 35 26 23 17 22
50 51 49 51 51 48 46 46 45 40 31 27 10 7 9 7 7 8 15 15 8 15 28 18 24 29 24 21 28 29 52 24 55 51 51 19 13 17 21 33 32 22 39 43 8 7 19
48 51 51 51 51 50 47 48 47 42 33 19 9 9 11 7 13 15 18 13 26 16 13 19 12 21 28 20 42 33 36 57 34 18 11 6 17 23 30 36 34 10 31 39 30 28 14
52 52 52 52 53 53 50 48 55 45 38 28 12 10 9 18 19 20 19 11 22 24 13 22 29 35 32 38 37 59 45 48 24 14 14 8 11 15 26 11 11 9 21 24 24 24 21
61 63 62 60 59 59 56 56 58 55 45 34 33 38 24 15 14 12 17 16 17 24 27 31 30 36 40 41 48 65 72 69 42 35 28 7 9 12 9 14 17 6 18 10 6 20 14
64 67 67 66 66 66 65 63 61 65 64 65 60 39 15 18 20 22 23 33 36 35 35 53 55 32 28 64 76 47 31 27 23 19 14 12 7 7 12 21 2 4 10 5 3 12 15
68 70 72 71 71 68 70 71 72 69 73 77 77 60 25 17 30 31 34 28 37 36 34 45 50 30 42 37 12 17 3 4 5 13 10 10 8 7 7 11 1 5 8 9 9 7 19
67 85 69 69 70 72 72 73 72 81 77 84 88 76 44 16 23 48 30 30 22 23 26 23 26 26 14 7 6 7 7 7 6 9 9 7 11 8 6 8 7 7 17 12 10 3 18
89 93 92 93 89 98 93 87 89 88 84 83 91 91 70 30 53 36 22 18 13 11 12 23 12 10 2 5 7 6 8 1 6 9 8 9 5 10 12 6 2 7 17 9 7 8 18
74 77 77 77 71 82 87 86 82 82 77 80 102 103 89 41 58 36 47 45 33 19 19 13 15 9 6 7 5 3 6 6 7 11 9 6 7 5 6 6 2 10 3 7 5 9 13
71 72 74 78 80 76 76 77 75 76 72 84 88 111 105 51 24 38 72 77 68 61 36 18 16 2 6 6 6 5 9 6 8 10 6 6 3 6 5 6 2 3 3 2 5 8 10
Wind_Direction_500mb
16 15 11 5 9 3 0 9 359 351 346 353 352 348 344 349 344 337 336 334 332 333 331 325 324 319 325 304 278 293 283 289 294 301 292 287 276 272 259 260 255 249 242 248 254 261 261
13 4 7 3 6 9 6 357 346 348 347 348 344 340 337 344 341 341 337 333 330 333 328 322 321 318 312 288 304 320 306 307 308 306 291 277 270 275 289 277 269 263 269 259 254 255 259
2 3 4 352 355 356 2 3 359 355 346 342 341 336 340 342 339 337 334 329 330 330 324 323 325 316 301 276 299 310 309 299 312 304 297 291 278 271 279 287 266 266 267 264 259 265 261
357 359 3 352 352 350 349 351 351 346 350 345 342 343 338 338 335 332 331 329 332 324 321 321 318 313 273 297 315 306 316 305 297 293 288 283 274 268 273 283 281 276 268 268 252 249 253
360 360 360 350 351 350 348 343 346 352 349 345 336 341 338 336 334 336 331 331 335 326 318 324 319 333 295 321 325 308 310 299 304 299 293 277 270 258 258 258 275 250 253 252 254 246 239
352 356 354 350 344 346 344 339 344 350 348 338 342 341 341 335 334 335 333 339 342 315 349 352 284 326 293 317 318 310 316 297 307 302 297 272 254 253 248 254 253 260 260 245 250 248 258
348 352 347 342 342 343 345 343 340 344 341 344 342 337 337 338 336 340 340 348 358 339 333 312 299 281 288 311 307 314 312 299 297 289 272 274 286 257 246 245 250 250 253 269 271 273 252
345 341 344 345 348 344 341 340 336 336 339 340 338 336 337 334 338 344 349 7 9 323 312 324 318 307 306 322 314 316 324 310 304 288 292 288 267 261 264 273 275 274 281 277 273 266 265
338 338 336 342 331 338 337 338 341 335 335 339 340 336 340 335 344 344 343 335 332 338 296 310 309 319 339 330 317 308 329 318 295 286 282 272 269 283 285 267 259 256 254 262 267 269 266
329 334 335 331 330 329 333 339 338 331 333 338 343 340 338 337 352 336 347 324 330 329 284 336 334 346 330 330 305 317 318 327 287 288 294 280 277 277 265 257 261 263 262 263 263 267 265
326 332 325 329 335 336 331 336 338 332 333 336 338 339 337 345 324 343 326 333 327 320 307 346 329 325 325 327 305 319 316 324 273 285 285 265 301 289 278 272 269 267 259 262 264 264 270
328 328 325 322 327 323 331 336 338 332 331 336 339 341 337 344 343 335 334 331 350 246 299 329 321 327 330 328 327 304 327 327 286 286 273 273 269 264 265 281 273 268 260 260 262 257 257
325 321 331 317 330 331 325 330 335 328 331 335 338 339 337 339 334 335 335 335 272 351 340 306 329 332 325 327 332 335 335 331 335 303 339 331 334 264 255 288 260 239 224 238 240 222 247
317 324 324 325 323 323 320 329 333 322 332 334 335 334 335 330 334 339 339 286 329 356 309 314 323 317 315 341 330 333 330 329 351 352 315 341 327 333 319 297 289 286 248 235 270 251 271
317 320 320 321 321 323 319 326 328 328 329 331 333 336 323 327 337 346 337 340 326 330 324 320 320 319 309 328 336 321 326 297 321 359 352 322 300 312 307 358 273 346 226 251 247 255 276
311 313 317 316 317 320 318 323 327 328 332 333 334 329 281 329 340 354 287 308 272 301 306 310 298 317 308 324 323 339 310 306 323 337 359 305 300 310 313 317 159 293 317 280 202 260 259
314 317 314 312 315 314 316 314 325 327 332 333 332 321 265 322 337 315 323 277 300 294 306 271 284 293 290 312 320 315 274 299 329 332 331 295 263 291 306 316 315 303 340 326 269 238 275
314 313 313 312 311 311 312 309 320 324 326 329 327 299 281 316 280 174 276 309 295 286 292 283 281 270 271 304 301 303 280 300 319 329 312 319 291 286 294 299 269 331 320 317 291 240 243
308 312 311 314 307 309 308 306 312 317 320 329 301 273 289 303 267 302 294 264 276 279 283 269 267 257 280 300 306 279 297 308 311 311 306 313 262 308 314 167 343 336 344 321 267 256 265
308 310 312 312 308 307 304 301 304 310 307 314 299 294 259 238 258 292 314 289 263 266 281 255 268 285 281 284 271 281 290 300 310 300 300 313 263 265 277 290 311 325 354 352 220 282 267
328 319 313 310 308 306 302 295 294 295 287 291 232 242 253 265 245 252 289 268 283 294 218 272 270 251 293 300 301 272 300 310 319 329 299 274 276 293 285 282 285 11 11 4 17 358 24
317 316 316 312 309 305 301 293 292 279 273 251 242 235 226 264 258 258 261 256 265 279 247 266 279 284 287 290 283 295 308 303 304 291 317 264 281 321 299 305 268 360 15 14 15 358 12
311 311 310 307 305 303 300 294 290 284 268 248 242 247 248 259 221 238 245 242 268 291 286 265 287 302 294 287 293 293 286 278 267 278 288 278 300 309 288 318 303 171 1 22 46 18 336
307 306 305 304 302 301 299 294 288 277 277 260 247 249 221 262 231 236 255 275 275 276 277 285 292 287 279 307 306 297 275 259 251 259 271 282 277 275 293 302 38 75 41 277 130 59 11
304 303 301 300 300 300 298 294 289 282 269 255 249 237 221 259 250 252 260 273 273 274 274 284 288 287 307 309 298 316 281 208 244 248 281 248 273 292 298 315 168 162 29 350 356 40 18
301 302 300 302 300 292 298 296 295 290 278 247 244 241 227 253 242 245 260 259 275 281 286 251 281 300 319 282 282 292 303 337 309 311 201 227 238 263 306 291 350 34 347 338 304 228 10
298 299 298 294 298 298 298 293 289 287 285 268 238 240 229 224 253 234 220 242 217 253 254 276 296 313 309 280 274 287 295 336 289 301 337 311 320 298 311 307 125 37 331 339 269 17 355
305 301 302 300 293 292 293 297 293 286 294 288 243 239 227 222 232 219 225 216 227 219 247 294 310 200 235 248 261 329 270 334 292 295 283 290 321 340 291 266 312 1 257 335 1 340 350
304 308 309 307 306 304 301 299 299 295 294 299 300 234 237 219 229 224 240 250 248 231 247 242 235 200 261 244 227 276 265 257 305 297 173 277 301 305 260 328 99 358 84 328 296 297 330
Wind_Speed_850mb
35 35 35 39 36 41 40 43 39 45 53 54 56 56 56 58 58 55 57 61 62 61 60 64 63 66 50 33 47 42 48 38 44 41 41 39 46 45 52 49 65 56 62 86 89 85 75
41 42 43 42 44 43 46 34 37 45 46 46 47 50 58 58 61 59 60 62 63 64 66 64 57 43 42 46 17 24 34 47 39 35 37 38 39 40 47 51 52 68 69 68 78 78 73
40 38 40 41 46 50 51 53 47 52 58 50 51 52 53 57 60 62 64 65 68 71 68 58 45 40 49 53 41 40 27 23 22 26 30 28 30 34 37 46 66 67 61 61 58 55 61
38 39 39 40 42 46 48 51 47 56 48 50 54 57 52 56 58 63 66 69 73 60 56 27 54 39 26 25 27 27 24 50 39 32 43 51 50 52 42 44 62 54 47 38 60 61 63
38 40 43 46 43 46 45 51 54 58 50 50 54 59 57 57 61 65 68 73 62 47 37 47 25 15 21 23 26 35 34 33 33 54 49 46 40 50 49 37 36 40 47 63 60 53 63
38 39 40 38 44 50 46 51 55 58 53 58 53 59 61 58 61 64 68 72 48 31 16 22 1 28 12 45 48 44 39 27 40 52 49 37 43 36 37 34 34 46 47 56 63 58 63
42 38 41 41 39 44 47 50 53 54 53 55 54 56 58 61 61 60 62 53 56 11 61 19 52 39 53 40 48 36 43 46 53 46 32 40 25 34 46 49 55 54 54 65 57 56 55
35 39 39 45 40 44 48 53 57 52 54 59 59 59 60 58 58 46 45 27 22 29 29 49 16 20 30 26 56 71 47 36 42 45 41 38 41 51 48 46 46 43 45 52 53 62 54
41 41 41 43 45 43 47 54 56 49 56 61 64 58 54 56 51 30 35 18 34 34 17 29 19 25 34 37 80 60 60 41 34 43 39 40 56 48 50 45 48 48 49 51 53 54 56
42 43 43 44 44 40 47 52 58 53 56 61 64 55 53 61 26 38 24 31 36 25 8 14 19 4 36 70 24 66 28 30 24 28 30 30 39 34 42 51 48 49 50 49 51 45 31
43 43 47 52 39 44 47 50 57 50 54 65 65 51 57 51 34 26 36 47 44 2 12 30 17 24 66 39 56 35 30 41 38 49 25 32 40 40 42 48 43 44 42 40 44 40 41
42 49 45 52 45 41 48 50 54 46 58 58 64 48 60 36 28 35 44 49 11 7 8 26 28 51 49 49 44 25 52 38 36 27 31 44 44 32 30 37 34 34 38 34 34 31 32
43 51 47 42 48 44 46 48 53 47 55 60 57 51 54 30 30 44 46 24 8 5 27 18 52 55 49 38 30 24 41 30 19 16 36 34 22 9 14 20 22 34 22 16 17 20 27
47 50 47 47 48 52 46 48 52 46 56 59 60 51 42 22 34 41 32 6 6 7 26 34 35 48 19 37 29 35 38 29 20 23 30 26 37 27 19 40 25 43 15 14 18 23 30
48 48 53 52 48 51 46 45 48 49 49 58 57 50 17 19 33 32 15 5 6 18 21 28 39 18 22 28 23 27 38 25 13 20 19 26 30 55 28 8 10 5 12 32 24 35 25
48 47 52 49 48 48 44 45 43 47 49 55 53 38 11 17 36 18 5 7 6 18 26 19 14 10 25 29 26 33 23 15 31 20 28 16 36 19 21 30 1 22 21 10 10 8 25
47 48 49 48 46 46 45 43 43 45 46 49 39 20 11 22 21 4 5 8 16 22 27 7 13 16 21 34 27 32 16 34 12 40 36 24 11 28 34 23 34 13 19 11 13 8 14
45 46 49 48 47 44 42 44 40 42 41 40 23 9 17 19 6 1 9 17 20 20 16 20 16 21 26 30 27 22 22 32 49 45 38 13 13 23 42 35 2 12 26 24 13 6 12
50 48 48 48 50 44 43 44 43 40 35 33 16 17 17 7 6 8 15 16 24 14 12 5 12 15 15 18 20 23 29 27 58 18 16 14 8 23 22 3 8 22 35 26 23 17 22
50 51 49 51 51 48 46 46 45 40 31 27 10 7 9 7 7 8 15 15 8 15 28 18 24 29 24 21 28 29 52 24 55 51 51 19 13 17 21 33 32 22 39 43 8 7 19
48 51 51 51 51 50 47 48 47 42 33 19 9 9 11 7 13 15 18 13 26 16 13 19 12 21 28 20 42 33 36 57 34 18 11 6 17 23 30 36 34 10 31 39 30 28 14
52 52 52 52 53 53 50 48 55 45 38 28 12 10 9 18 19 20 19 11 22 24 13 22 29 35 32 38 37 59 45 48 24 14 14 8 11 15 26 11 11 9 21 24 24 24 21
61 63 62 60 59 59 56 56 58 55 45 34 33 38 24 15 14 12 17 16 17 24 27 31 30 36 40 41 48 65 72 69 42 35 28 7 9 12 9 14 17 6 18 10 6 20 14
64 67 67 66 66 66 65 63 61 65 64 65 60 39 15 18 20 22 23 33 36 35 35 53 55 32 28 64 76 47 31 27 23 19 14 12 7 7 12 21 2 4 10 5 3 12 15
68 70 72 71 71 68 70 71 72 69 73 77 77 60 25 17 30 31 34 28 37 36 34 45 50 30 42 37 12 17 3 4 5 13 10 10 8 7 7 11 1 5 8 9 9 7 19
67 85 69 69 70 72 72 73 72 81 77 84 88 76 44 16 23 48 30 30 22 23 26 23 26 26 14 7 6 7 7 7 6 9 9 7 11 8 6 8 7 7 17 12 10 3 18
89 93 92 93 89 98 93 87 89 88 84 83 91 91 70 30 53 36 22 18 13 11 12 23 12 10 2 5 7 6 8 1 6 9 8 9 5 10 12 6 2 7 17 9 7 8 18
74 77 77 77 71 82 87 86 82 82 77 80 102 103 89 41 58 36 47 45 33 19 19 13 15 9 6 7 5 3 6 6 7 11 9 6 7 5 6 6 2 10 3 7 5 9 13
71 72 74 78 80 76 76 77 75 76 72 84 88 111 105 51 24 38 72 77 68 61 36 18 16 2 6 6 6 5 9 6 8 10 6 6 3 6 5 6 2 3 3 2 5 8 10
Wind_Direction_850mb
16 15 11 5 9 3 0 9 359 351 346 353 352 348 344 349 344 337 336 334 332 333 331 325 324 319 325 304 278 293 283 289 294 301 292 287 276 272 259 260 255 249 242 248 254 261 261
13 4 7 3 6 9 6 357 346 348 347 348 344 340 337 344 341 341 337 333 330 333 328 322 321 318 312 288 304 320 306 307 308 306 291 277 270 275 289 277 269 263 269 259 254 255 259
2 3 4 352 355 356 2 3 359 355 346 342 341 336 340 342 339 337 334 329 330 330 324 323 325 316 301 276 299 310 309 299 312 304 297 291 278 271 279 287 266 266 267 264 259 265 261
357 359 3 352 352 350 349 351 351 346 350 345 342 343 338 338 335 332 331 329 332 324 321 321 318 313 273 297 315 306 316 305 297 293 288 283 274 268 273 283 281 276 268 268 252 249 253
360 360 360 350 351 350 348 343 346 352 349 345 336 341 338 336 334 336 331 331 335 326 318 324 319 333 295 321 325 308 310 299 304 299 293 277 270 258 258 258 275 250 253 252 254 246 239
352 356 354 350 344 346 344 339 344 350 348 338 342 341 341 335 334 335 333 339 342 315 349 352 284 326 293 317 318 310 316 297 307 302 297 272 254 253 248 254 253 260 260 245 250 248 258
348 352 347 342 342 343 345 343 340 344 341 344 342 337 337 338 336 340 340 348 358 339 333 312 299 281 288 311 307 314 312 299 297 289 272 274 286 257 246 245 250 250 253 269 271 273 252
345 341 344 345 348 344 341 340 336 336 339 340 338 336 337 334 338 344 349 7 9 323 312 324 318 307 306 322 314 316 324 310 304 288 292 288 267 261 264 273 275 274 281 277 273 266 265
338 338 336 342 331 338 337 338 341 335 335 339 340 336 340 335 344 344 343 335 332 338 296 310 309 319 339 330 317 308 329 318 295 286 282 272 269 283 285 267 259 256 254 262 267 269 266
329 334 335 331 330 329 333 339 338 331 333 338 343 340 338 337 352 336 347 324 330 329 284 336 334 346 330 330 305 317 318 327 287 288 294 280 277 277 265 257 261 263 262 263 263 267 265
326 332 325 329 335 336 331 336 338 332 333 336 338 339 337 345 324 343 326 333 327 320 307 346 329 325 325 327 305 319 316 324 273 285 285 265 301 289 278 272 269 267 259 262 264 264 270
328 328 325 322 327 323 331 336 338 332 331 336 339 341 337 344 343 335 334 331 350 246 299 329 321 327 330 328 327 304 327 327 286 286 273 273 269 264 265 281 273 268 260 260 262 257 257
325 321 331 317 330 331 325 330 335 328 331 335 338 339 337 339 334 335 335 335 272 351 340 306 329 332 325 327 332 335 335 331 335 303 339 331 334 264 255 288 260 239 224 238 240 222 247
317 324 324 325 323 323 320 329 333 322 332 334 335 334 335 330 334 339 339 286 329 356 309 314 323 317 315 341 330 333 330 329 351 352 315 341 327 333 319 297 289 286 248 235 270 251 271
317 320 320 321 321 323 319 326 328 328 329 331 333 336 323 327 337 346 337 340 326 330 324 320 320 319 309 328 336 321 326 297 321 359 352 322 300 312 307 358 273 346 226 251 247 255 276
311 313 317 316 317 320 318 323 327 328 332 333 334 329 281 329 340 354 287 308 272 301 306 310 298 317 308 324 323 339 310 306 323 337 359 305 300 310 313 317 159 293 317 280 202 260 259
314 317 314 312 315 314 316 314 325 327 332 333 332 321 265 322 337 315 323 277 300 294 306 271 284 293 290 312 320 315 274 299 329 332 331 295 263 291 306 316 315 303 340 326 269 238 275
314 313 313 312 311 311 312 309 320 324 326 329 327 299 281 316 280 174 276 309 295 286 292 283 281 270 271 304 301 303 280 300 319 329 312 319 291 286 294 299 269 331 320 317 291 240 243
308 312 311 314 307 309 308 306 312 317 320 329 301 273 289 303 267 302 294 264 276 279 283 269 267 257 280 300 306 279 297 308 311 311 306 313 262 308 314 167 343 336 344 321 267 256 265
308 310 312 312 308 307 304 301 304 310 307 314 299 294 259 238 258 292 314 289 263 266 281 255 268 285 281 284 271 281 290 300 310 300 300 313 263 265 277 290 311 325 354 352 220 282 267
328 319 313 310 308 306 302 295 294 295 287 291 232 242 253 265 245 252 289 268 283 294 218 272 270 251 293 300 301 272 300 310 319 329 299 274 276 293 285 282 285 11 11 4 17 358 24
317 316 316 312 309 305 301 293 292 279 273 251 242 235 226 264 258 258 261 256 265 279 247 266 279 284 287 290 283 295 308 303 304 291 317 264 281 321 299 305 268 360 15 14 15 358 12
311 311 310 307 305 303 300 294 290 284 268 248 242 247 248 259 221 238 245 242 268 291 286 265 287 302 294 287 293 293 286 278 267 278 288 278 300 309 288 318 303 171 1 22 46 18 336
307 306 305 304 302 301 299 294 288 277 277 260 247 249 221 262 231 236 255 275 275 276 277 285 292 287 279 307 306 297 275 259 251 259 271 282 277 275 293 302 38 75 41 277 130 59 11
304 303 301 300 300 300 298 294 289 282 269 255 249 237 221 259 250 252 260 273 273 274 274 284 288 287 307 309 298 316 281 208 244 248 281 248 273 292 298 315 168 162 29 350 356 40 18
301 302 300 302 300 292 298 296 295 290 278 247 244 241 227 253 242 245 260 259 275 281 286 251 281 300 319 282 282 292 303 337 309 311 201 227 238 263 306 291 350 34 347 338 304 228 10
298 299 298 294 298 298 298 293 289 287 285 268 238 240 229 224 253 234 220 242 217 253 254 276 296 313 309 280 274 287 295 336 289 301 337 311 320 298 311 307 125 37 331 339 269 17 355
305 301 302 300 293 292 293 297 293 286 294 288 243 239 227 222 232 219 225 216 227 219 247 294 310 200 235 248 261 329 270 334 292 295 283 290 321 340 291 266 312 1 257 335 1 340 350
304 308 309 307 306 304 301 299 299 295 294 299 300 234 237 219 229 224 240 250 248 231 247 242 235 200 261 244 227 276 265 257 305 297 173 277 301 305 260 328 99 358 84 328 296 297 330